sat.trackr.live / text

‹ back to catalog

STARLINK-31597

NORAD 59464 · 2024-068K

PAYLOAD ACTIVE UNKNOWN

§ Identity

Operator
Country
US
Launch date
2024-04-10
Launch site
AFETR
Launch vehicle
Mass (kg)
RCS (m²)

Purposes: comms

External: N2YO · Heavens-Above · Gunter

§ Orbital elements

Epoch: 2026-09-21T14:17:24.972288Z

Period
94.27 min
Inclination
43.0054°
Eccentricity
0.0001472
Mean motion
15.27577320 rev/d
Perigee alt
482.0 km
Apogee alt
484.1 km
Semi-major
6,861.2 km
B*
1.3660e-5
RAAN
8.1727°
Arg perigee
282.7959°
Mean anomaly
77.2728°
Rev number
13,843

§ Raw data

STARLINK-315971 59464U 24068K   26264.59542792  .00000114  00000+0  13660-4 0  99962 59464  43.0054   8.1727 0001472 282.7959  77.2728 15.27577320138438

JSON: /api/v1/satellites/59464 · /tle

For live sub-satellite position, see the globe view (requires WebGL).

§ Visibility from observer

Set your observer location to see the next 7 days of passes ≥ 10°. The values pass through the URL so the page stays shareable.

No JS? Fill the form by hand. The geolocation button needs JavaScript.